TimeCST,TemperatureF,Dew PointF,Humidity,Sea Level PressureIn,VisibilityMPH,Wind Direction,Wind SpeedMPH,Gust SpeedMPH,PrecipitationIn,Events,Conditions,WindDirDegrees,DateUTC
12:15 AM,32.0,32.0,100,30.32,10.0,Calm,Calm,-,N/A,,Clear,0,2013-11-08 06:15:00
12:35 AM,32.0,32.0,100,30.32,10.0,Calm,Calm,-,N/A,,Scattered Clouds,0,2013-11-08 06:35:00
12:55 AM,32.0,31.8,99,30.33,10.0,Calm,Calm,-,N/A,,Mostly Cloudy,0,2013-11-08 06:55:00
1:15 AM,31.8,31.5,99,30.33,10.0,Calm,Calm,-,N/A,,Clear,0,2013-11-08 07:15:00
1:35 AM,30.6,30.6,100,30.32,10.0,Calm,Calm,-,N/A,,Clear,0,2013-11-08 07:35:00
1:55 AM,30.7,30.7,100,30.33,10.0,Calm,Calm,-,N/A,,Clear,0,2013-11-08 07:55:00
2:15 AM,30.6,30.6,100,30.33,10.0,Calm,Calm,-,N/A,,Clear,0,2013-11-08 08:15:00
2:35 AM,30.9,30.9,100,30.33,10.0,Calm,Calm,-,N/A,,Clear,0,2013-11-08 08:35:00
2:55 AM,30.6,30.6,100,30.33,10.0,Calm,Calm,-,N/A,,Clear,0,2013-11-08 08:55:00
3:15 AM,30.2,30.2,100,30.34,10.0,Calm,Calm,-,N/A,,Clear,0,2013-11-08 09:15:00
3:35 AM,30.4,30.4,100,30.34,10.0,Calm,Calm,-,N/A,,Clear,0,2013-11-08 09:35:00
3:55 AM,29.5,29.5,100,30.34,10.0,Calm,Calm,-,N/A,,Clear,0,2013-11-08 09:55:00
4:15 AM,29.7,29.7,100,30.34,10.0,Calm,Calm,-,N/A,,Clear,0,2013-11-08 10:15:00
4:35 AM,28.9,28.9,100,30.34,10.0,Calm,Calm,-,N/A,,Clear,0,2013-11-08 10:35:00
4:55 AM,28.4,28.4,100,30.36,10.0,Calm,Calm,-,N/A,,Clear,0,2013-11-08 10:55:00
5:15 AM,28.8,28.8,100,30.36,10.0,Calm,Calm,-,N/A,,Clear,0,2013-11-08 11:15:00
5:35 AM,28.6,28.6,100,30.38,10.0,Calm,Calm,-,N/A,,Clear,0,2013-11-08 11:35:00
5:55 AM,28.2,28.2,100,30.38,10.0,Calm,Calm,-,N/A,,Clear,0,2013-11-08 11:55:00
6:15 AM,28.2,28.2,100,30.38,10.0,Calm,Calm,-,N/A,,Clear,0,2013-11-08 12:15:00
6:35 AM,28.0,28.0,100,30.38,10.0,Calm,Calm,-,N/A,,Clear,0,2013-11-08 12:35:00
6:55 AM,28.8,28.8,100,30.39,10.0,Calm,Calm,-,N/A,,Clear,0,2013-11-08 12:55:00
7:15 AM,30.4,30.4,100,30.39,10.0,Calm,Calm,-,N/A,,Clear,0,2013-11-08 13:15:00
7:35 AM,32.2,31.8,99,30.40,10.0,Calm,Calm,-,N/A,,Clear,0,2013-11-08 13:35:00
7:55 AM,34.5,32.0,90,30.40,10.0,Calm,Calm,-,N/A,,Clear,0,2013-11-08 13:55:00
8:15 AM,36.7,32.4,84,30.41,10.0,Calm,Calm,-,N/A,,Clear,0,2013-11-08 14:15:00
8:35 AM,39.0,32.4,77,30.41,10.0,Calm,Calm,-,N/A,,Clear,0,2013-11-08 14:35:00
8:55 AM,42.1,31.1,65,30.41,10.0,ESE,3.5,-,N/A,,Clear,110,2013-11-08 14:55:00
9:15 AM,44.2,28.6,54,30.41,10.0,Calm,Calm,-,N/A,,Clear,0,2013-11-08 15:15:00
9:35 AM,45.9,29.5,53,30.41,10.0,Calm,Calm,-,N/A,,Clear,0,2013-11-08 15:35:00
9:55 AM,48.0,28.9,48,30.40,10.0,NNE,4.6,-,N/A,,Clear,30,2013-11-08 15:55:00
10:15 AM,49.1,26.8,42,30.40,10.0,ENE,5.8,-,N/A,,Clear,70,2013-11-08 16:15:00
10:35 AM,49.5,28.4,44,30.40,10.0,East,5.8,-,N/A,,Clear,80,2013-11-08 16:35:00
10:55 AM,50.4,27.9,42,30.40,10.0,Calm,Calm,-,N/A,,Clear,0,2013-11-08 16:55:00
11:15 AM,51.1,27.3,40,30.39,10.0,NNW,3.5,-,N/A,,Clear,340,2013-11-08 17:15:00
11:35 AM,51.6,24.6,35,30.38,10.0,Calm,Calm,-,N/A,,Clear,0,2013-11-08 17:35:00
11:55 AM,52.2,25.7,36,30.37,10.0,SE,4.6,-,N/A,,Clear,130,2013-11-08 17:55:00
12:15 PM,52.3,25.7,36,30.36,10.0,Calm,Calm,-,N/A,,Clear,0,2013-11-08 18:15:00
12:35 PM,53.2,26.4,35,30.35,10.0,East,4.6,-,N/A,,Clear,100,2013-11-08 18:35:00
12:55 PM,53.4,26.2,35,30.34,10.0,ENE,5.8,-,N/A,,Clear,70,2013-11-08 18:55:00
1:15 PM,54.1,25.5,33,30.33,10.0,East,3.5,-,N/A,,Clear,80,2013-11-08 19:15:00
1:35 PM,53.8,24.3,32,30.33,10.0,Calm,Calm,-,N/A,,Clear,0,2013-11-08 19:35:00
1:55 PM,54.5,24.6,31,30.33,10.0,Calm,Calm,-,N/A,,Clear,0,2013-11-08 19:55:00
2:15 PM,54.5,25.5,33,30.32,10.0,Calm,Calm,-,N/A,,Clear,0,2013-11-08 20:15:00
2:35 PM,54.5,24.8,32,30.31,10.0,ENE,3.5,-,N/A,,Clear,70,2013-11-08 20:35:00
2:55 PM,54.5,24.1,31,30.31,10.0,Calm,Calm,-,N/A,,Clear,0,2013-11-08 20:55:00
3:15 PM,54.3,24.1,31,30.29,10.0,East,3.5,-,N/A,,Clear,100,2013-11-08 21:15:00
3:35 PM,53.6,23.2,31,30.29,10.0,SSE,3.5,-,N/A,,Clear,150,2013-11-08 21:35:00
3:55 PM,52.9,23.5,32,30.29,10.0,ESE,3.5,-,N/A,,Clear,120,2013-11-08 21:55:00
4:15 PM,52.3,25.0,35,30.29,10.0,East,3.5,-,N/A,,Clear,90,2013-11-08 22:15:00
4:35 PM,51.1,24.3,35,30.29,10.0,Calm,Calm,-,N/A,,Clear,0,2013-11-08 22:35:00
4:55 PM,46.8,26.6,45,30.29,10.0,Calm,Calm,-,N/A,,Clear,0,2013-11-08 22:55:00
5:15 PM,46.8,25.5,43,30.28,10.0,Calm,Calm,-,N/A,,Clear,0,2013-11-08 23:15:00
5:35 PM,42.6,27.9,56,30.28,10.0,Calm,Calm,-,N/A,,Clear,0,2013-11-08 23:35:00
5:55 PM,42.1,27.7,57,30.28,10.0,Calm,Calm,-,N/A,,Clear,0,2013-11-08 23:55:00
6:15 PM,41.2,27.9,59,30.29,10.0,Calm,Calm,-,N/A,,Clear,0,2013-11-09 00:15:00
6:35 PM,39.0,29.3,68,30.28,10.0,Calm,Calm,-,N/A,,Clear,0,2013-11-09 00:35:00
6:55 PM,38.1,30.0,73,30.28,10.0,Calm,Calm,-,N/A,,Clear,0,2013-11-09 00:55:00
7:15 PM,37.8,30.2,74,30.27,10.0,Calm,Calm,-,N/A,,Clear,0,2013-11-09 01:15:00
7:35 PM,36.7,30.2,77,30.27,10.0,Calm,Calm,-,N/A,,Clear,0,2013-11-09 01:35:00
7:55 PM,36.3,29.8,77,30.27,10.0,Calm,Calm,-,N/A,,Clear,0,2013-11-09 01:55:00
8:15 PM,35.8,29.8,79,30.26,10.0,Calm,Calm,-,N/A,,Clear,0,2013-11-09 02:15:00
8:35 PM,35.2,30.0,81,30.26,10.0,Calm,Calm,-,N/A,,Clear,0,2013-11-09 02:35:00
8:55 PM,35.6,29.8,80,30.26,10.0,Calm,Calm,-,N/A,,Clear,0,2013-11-09 02:55:00
9:15 PM,34.7,29.8,82,30.27,10.0,Calm,Calm,-,N/A,,Clear,0,2013-11-09 03:15:00
9:35 PM,34.2,29.7,84,30.27,10.0,Calm,Calm,-,N/A,,Clear,0,2013-11-09 03:35:00
9:55 PM,33.8,29.7,85,30.27,10.0,Calm,Calm,-,N/A,,Clear,0,2013-11-09 03:55:00
10:15 PM,33.3,29.7,87,30.26,10.0,Calm,Calm,-,N/A,,Clear,0,2013-11-09 04:15:00
10:35 PM,32.9,29.7,88,30.26,10.0,Calm,Calm,-,N/A,,Clear,0,2013-11-09 04:35:00
10:55 PM,32.5,30.0,90,30.26,10.0,Calm,Calm,-,N/A,,Clear,0,2013-11-09 04:55:00
11:15 PM,32.2,29.8,91,30.26,10.0,Calm,Calm,-,N/A,,Clear,0,2013-11-09 05:15:00
11:35 PM,31.8,29.8,92,30.26,10.0,Calm,Calm,-,N/A,,Clear,0,2013-11-09 05:35:00
11:55 PM,31.8,30.0,93,30.25,10.0,Calm,Calm,-,N/A,,Clear,0,2013-11-09 05:55:00